Content
SEND FEEDBACK

Daily
Averages
Monthly
Summary
United States of America

BLOCK ISLAND, RHODE ISLAND


Home > North America > United States > Rhode Island
Elevation: 11 feet     Latitude: 41 10N     Longitude: 071 35W

WEATHER
 
SELECT A DAY
Number of Records: 385,094;   Date Range: 1/1/95 - 12/16/14
 
SHARE

PRINT THIS DATA

[ ← Previous Day ]
WEATHER ALMANAC - FEBRUARY 13, 2013
[ Next Day → ]
[ °C ]   °F
Weather ElementAverageHighLow
Temperature36.8 °F39.2 °F (11:35 am)33.8 °F (6:55 am)
Dewpoint23.3 °F28.4 °F (10:55 pm)19.4 °F (5:15 am)
Humidity58.5 %70 % (6:15 pm)49 % (3:15 pm)
Barometer29.82 in29.91 in (8:15 am)29.66 in (10:35 pm)
Wind Speed7.1 mph13.8 mph (2:35 am)
Wind Gust21.9 mph (2:35 am)
Weather ElementAverage
Visibility10 mi
Wind DirectionSW (220.9 °)

Weather ElementTotal
Precipitation---
Heating Degree Days28.5 (Base 65)
Averaged from 67 records on February 13, 2013
WEATHER CONDITIONS BREAKOUT
WIND DIRECTION BREAKOUT
WEATHER BY HOUR - FEBRUARY 13, 2013
[ °C ]   °F
Local TimeTemperatureDewpointHumidityBarometerVisibilityWind DirectionWind SpeedGust SpeedPrecipitationEventsConditions
12:35 AM37.4 °F26.6 °F65 %29.88 in10.0 miWest (280°)10.4 mph16.1 mphClear
12:55 AM37.4 °F24.8 °F60 %29.88 in10.0 miWNW (290°)8.1 mphClear
1:15 AM37.4 °F24.8 °F60 %29.88 in10.0 miWNW (290°)8.1 mphMostly Cloudy
1:35 AM37.4 °F24.8 °F60 %29.88 in10.0 miWNW (290°)9.2 mphMostly Cloudy
1:55 AM37.4 °F24.8 °F60 %29.89 in10.0 miWNW (290°)10.4 mph16.1 mphScattered Clouds
2:15 AM35.6 °F24.8 °F65 %29.90 in10.0 miWNW (300°)9.2 mphPartly Cloudy
2:35 AM35.6 °F21.2 °F56 %29.90 in10.0 miWNW (300°)13.8 mph21.9 mphClear
2:55 AM35.6 °F21.2 °F56 %29.90 in10.0 miWNW (300°)12.7 mph18.4 mphClear
3:15 AM35.6 °F21.2 °F56 %29.90 in10.0 miWNW (300°)10.4 mphPartly Cloudy
3:35 AM35.6 °F21.2 °F56 %29.90 in10.0 miWNW (300°)8.1 mphClear
3:55 AM35.6 °F23.0 °F60 %29.90 in10.0 miWest (280°)8.1 mphScattered Clouds
4:15 AM35.6 °F24.8 °F65 %29.89 in10.0 miWNW (300°)5.8 mphMostly Cloudy
4:35 AM35.6 °F23.0 °F60 %29.89 in10.0 miNW (310°)5.8 mphScattered Clouds
4:55 AM35.6 °F21.2 °F56 %29.89 in10.0 miNW (310°)9.2 mph17.3 mphPartly Cloudy
5:15 AM35.6 °F19.4 °F52 %29.88 in10.0 miNW (320°)12.7 mph21.9 mphClear
5:35 AM35.6 °F19.4 °F52 %29.88 in10.0 miNW (310°)10.4 mphClear
5:55 AM35.6 °F19.4 °F52 %29.87 in10.0 miNW (310°)11.5 mph18.4 mphClear
6:15 AM35.6 °F19.4 °F52 %29.87 in10.0 miNW (310°)9.2 mph17.3 mphClear
6:35 AM35.6 °F19.4 °F52 %29.88 in10.0 miNW (310°)9.2 mphClear
6:55 AM33.8 °F21.2 °F60 %29.90 in10.0 miNW (310°)6.9 mphClear
7:15 AM35.6 °F21.2 °F56 %29.90 in10.0 miWNW (300°)8.1 mphClear
7:35 AM35.6 °F21.2 °F56 %29.89 in10.0 miNW (320°)5.8 mphClear
7:55 AM35.6 °F21.2 °F56 %29.90 in10.0 miNW (310°)8.1 mphClear
8:15 AM37.4 °F21.2 °F52 %29.91 in10.0 miNW (320°)4.6 mphClear
8:35 AM37.4 °F21.2 °F52 %29.90 in10.0 miNW (310°)5.8 mphClear
8:55 AM37.4 °F23.0 °F56 %29.90 in10.0 miNW (320°)6.9 mphClear
9:15 AM37.4 °F21.2 °F52 %29.89 in10.0 miNW (310°)8.1 mphClear
9:35 AM37.4 °F21.2 °F52 %29.88 in10.0 miNW (320°)4.6 mphClear
9:55 AM37.4 °F23.0 °F56 %29.87 in10.0 miNorth (350°)4.6 mphClear
10:15 AM37.4 °F23.0 °F56 %29.87 in10.0 miNNW (330°)6.9 mphClear
10:35 AM37.4 °F23.0 °F56 %29.87 in10.0 miNW (320°)6.9 mphClear
10:55 AM37.4 °F24.8 °F60 %29.87 in10.0 miNW (320°)6.9 mphClear
11:35 AM39.2 °F23.0 °F52 %29.87 in10.0 miSSW (210°)8.1 mphClear
11:55 AM39.2 °F23.0 °F52 %29.88 in10.0 miSW (230°)10.4 mphClear
12:15 PM39.2 °F24.8 °F56 %29.87 in10.0 miSW (230°)9.2 mphClear
12:35 PM39.2 °F23.0 °F52 %29.86 in10.0 miSSW (210°)11.5 mphClear
12:55 PM39.2 °F23.0 °F52 %29.85 in10.0 miWSW (250°)8.1 mphClear
1:15 PM39.2 °F23.0 °F52 %29.83 in10.0 miSW (230°)9.2 mphClear
1:35 PM39.2 °F23.0 °F52 %29.82 in10.0 miWest (260°)8.1 mphClear
1:55 PM39.2 °F23.0 °F52 %29.82 in10.0 miWSW (250°)6.9 mphClear
2:15 PM39.2 °F23.0 °F52 %29.81 in10.0 miWSW (240°)6.9 mphClear
2:35 PM39.2 °F23.0 °F52 %29.79 in10.0 miWSW (240°)4.6 mphClear
2:55 PM39.2 °F23.0 °F52 %29.78 in10.0 miWest (260°)3.5 mphClear
3:15 PM39.2 °F21.2 °F49 %29.77 in10.0 miCalmClear
3:35 PM39.2 °F21.2 °F49 %29.78 in10.0 miSW (230°)5.8 mphClear
3:55 PM39.2 °F21.2 °F49 %29.78 in10.0 miSSW (210°)9.2 mphClear
4:15 PM37.4 °F21.2 °F52 %29.77 in10.0 miSSW (210°)9.2 mphClear
4:35 PM37.4 °F23.0 °F56 %29.77 in10.0 miSSW (200°)8.1 mphClear
4:55 PM37.4 °F23.0 °F56 %29.76 in10.0 miSSW (210°)4.6 mphClear
5:15 PM35.6 °F23.0 °F60 %29.75 in10.0 miCalmClear
5:55 PM33.8 °F23.0 °F65 %29.73 in10.0 miCalmClear
6:15 PM33.8 °F24.8 °F70 %29.74 in10.0 miSouth (180°)6.9 mphClear
6:35 PM33.8 °F23.0 °F65 %29.73 in10.0 miSouth (180°)4.6 mphClear
6:55 PM33.8 °F23.0 °F65 %29.73 in10.0 miSouth (170°)4.6 mphClear
7:15 PM33.8 °F24.8 °F70 %29.71 in10.0 miCalmClear
7:35 PM33.8 °F24.8 °F70 %29.71 in10.0 miCalmClear
8:15 PM33.8 °F24.8 °F70 %29.71 in10.0 miESE (120°)5.8 mphPartly Cloudy
8:35 PM35.6 °F24.8 °F65 %29.71 in10.0 miESE (120°)3.5 mphMostly Cloudy
9:15 PM35.6 °F26.6 °F70 %29.71 in10.0 miSE (130°)5.8 mphOvercast
9:35 PM35.6 °F26.6 °F70 %29.69 in10.0 miEast (80°)3.5 mphOvercast
9:55 PM35.6 °F26.6 °F70 %29.68 in10.0 miENE (70°)5.8 mphOvercast
10:15 PM37.4 °F26.6 °F65 %29.67 in10.0 miENE (60°)8.1 mphOvercast
10:35 PM37.4 °F26.6 °F65 %29.66 in10.0 miNE (50°)5.8 mphOvercast
10:55 PM37.4 °F28.4 °F70 %29.66 in10.0 miNE (40°)8.1 mphOvercast
11:15 PM37.4 °F28.4 °F70 %29.66 in10.0 miNNE (30°)10.4 mphOvercast
11:35 PM37.4 °F28.4 °F70 %29.69 in10.0 miNE (40°)9.2 mphOvercast
11:55 PM37.4 °F28.4 °F70 %29.69 in10.0 miNNE (20°)6.9 mphOvercast
Hourly data recorded from KBID, located miles away from Block Island, Rhode Island







STORIES FROM OUR PARTNERS